EW7356 Weather Reports


Display with metric or nautical units.
time (UTC)temp
F
wind
direction
speed
MPH
gust
MPH
rain 1hr
in
rain 24hr
in
rain mn
in
humidity
%
barometer
mb
20260502234606 44 0 0.0 1.0 0.00 0.27 0.27 93 1009.0
20260502234030 44 0 0.0 1.0 0.00 0.27 0.27 93 1009.0
20260502233530 44 0 0.0 1.0 0.00 0.27 0.27 93 1008.9
20260502233043 44 0 0.0 1.0 0.00 0.27 0.27 93 1008.9
20260502232529 44 106 0.0 2.0 0.00 0.27 0.27 93 1008.9
20260502232032 44 0 0.0 2.0 0.00 0.27 0.27 93 1009.0
20260502231541 45 0 0.0 1.0 0.00 0.27 0.27 93 1008.9
20260502231029 45 0 0.0 1.0 0.00 0.27 0.27 93 1008.9
20260502230530 45 106 0.0 2.0 0.00 0.27 0.27 92 1008.9
20260502230038 45 0 0.0 2.0 0.00 0.27 0.27 92 1008.8
20260502225529 45 106 0.0 2.0 0.00 0.27 0.27 92 1008.9
20260502225029 45 0 0.0 2.0 0.00 0.27 0.27 91 1008.8
20260502224538 45 0 0.0 2.0 0.00 0.27 0.27 91 1008.8
20260502224031 45 0 0.0 2.0 0.00 0.27 0.27 91 1008.8
20260502223531 45 0 0.0 2.0 0.00 0.27 0.27 90 1008.7
20260502223033 45 68 1.0 2.0 0.00 0.27 0.27 89 1008.6
20260502222529 46 0 0.0 2.0 0.00 0.27 0.27 89 1008.7
20260502222029 46 68 0.0 2.0 0.00 0.27 0.27 89 1008.7
20260502221541 46 0 0.0 3.0 0.00 0.27 0.27 89 1008.5
20260502221030 46 0 0.0 3.0 0.00 0.27 0.27 89 1008.5
20260502220531 46 68 1.0 3.0 0.00 0.27 0.27 89 1008.6
20260502220039 46 81 0.0 2.0 0.00 0.27 0.27 89 1008.6
20260502215534 46 0 0.0 2.0 0.00 0.27 0.27 89 1008.6
20260502215030 46 0 0.0 3.0 0.00 0.27 0.27 89 1008.6
20260502214540 46 0 1.0 3.0 0.00 0.27 0.27 88 1008.6
20260502214035 46 73 0.0 3.0 0.00 0.27 0.27 89 1008.6
20260502213531 46 71 0.0 3.0 0.00 0.27 0.27 89 1008.6
20260502213045 46 67 0.0 3.0 0.00 0.27 0.27 90 1008.6
20260502212531 46 0 0.0 3.0 0.00 0.27 0.27 89 1008.7
20260502212031 46 0 1.0 4.0 0.00 0.27 0.27 88 1008.6
20260502211544 46 0 0.0 4.0 0.00 0.27 0.27 89 1008.8
20260502211030 46 0 0.0 4.0 0.00 0.27 0.27 88 1008.7
20260502210530 46 78 1.0 5.0 0.01 0.27 0.27 89 1008.6
20260502210044 47 36 1.0 5.0 0.01 0.27 0.27 88 1008.5
20260502205530 47 23 1.0 3.0 0.02 0.27 0.27 89 1008.7
20260502205030 47 65 1.0 3.0 0.02 0.27 0.27 91 1008.6
20260502204539 47 75 1.0 3.0 0.02 0.27 0.27 90 1008.6
20260502204034 46 0 1.0 3.0 0.03 0.27 0.27 89 1008.6
20260502203534 46 360 1.0 4.0 0.03 0.27 0.27 88 1008.7
20260502203046 47 355 1.0 8.0 0.03 0.27 0.27 88 1008.6
20260502202530 47 312 2.0 8.0 0.03 0.27 0.27 88 1008.6
20260502202030 47 352 3.0 8.0 0.04 0.27 0.27 92 1008.6
20260502201540 46 309 2.0 5.0 0.05 0.27 0.27 93 1008.6
20260502201031 45 331 2.0 5.0 0.05 0.27 0.27 91 1008.6
20260502200530 45 5 2.0 5.0 0.04 0.26 0.26 91 1008.6
20260502200035 45 22 1.0 4.0 0.03 0.25 0.25 91 1009.0
20260502195529 45 323 0.0 4.0 0.04 0.25 0.25 92 1009.0
20260502195030 45 5 1.0 3.0 0.04 0.25 0.25 91 1008.9
20260502194542 45 196 0.0 2.0 0.04 0.25 0.25 91 1009.0
20260502194028 45 0 0.0 3.0 0.03 0.24 0.24 90 1009.0
20260502193532 46 196 1.0 4.0 0.03 0.24 0.24 90 1009.0
20260502193056 46 161 0.0 5.0 0.03 0.24 0.24 91 1009.0
20260502192533 46 160 2.0 5.0 0.03 0.24 0.24 91 1008.9
20260502192030 46 148 1.0 5.0 0.02 0.23 0.23 91 1008.8
20260502191550 46 165 1.0 6.0 0.01 0.22 0.22 91 1008.8
20260502191029 46 163 1.0 6.0 0.01 0.22 0.22 90 1008.9
20260502190529 46 0 0.0 3.0 0.01 0.22 0.22 91 1008.9
20260502190044 46 133 1.0 3.0 0.01 0.22 0.22 89 1009.0
20260502185534 46 146 0.0 2.0 0.00 0.21 0.21 88 1009.1
20260502185029 47 0 0.0 2.0 0.00 0.21 0.21 88 1009.0
20260502184545 47 150 1.0 3.0 0.00 0.21 0.21 86 1009.2
20260502184029 48 145 0.0 4.0 0.00 0.21 0.21 86 1009.1
20260502183529 48 122 1.0 5.0 0.00 0.21 0.21 86 1009.1
20260502183044 48 150 0.0 5.0 0.00 0.21 0.21 87 1009.2
20260502182529 49 116 2.0 5.0 0.00 0.21 0.21 89 1009.2
20260502182031 48 142 2.0 5.0 0.01 0.21 0.21 85 1009.3
20260502181543 48 337 1.0 3.0 0.01 0.21 0.21 91 1009.3
20260502181030 47 0 1.0 4.0 0.01 0.21 0.21 86 1009.3
20260502180527 46 161 2.0 4.0 0.01 0.21 0.21 89 1009.4
20260502164029 44 129 0.0 5.0 0.03 0.20 0.20 94 1009.4
20260502163529 44 154 1.0 4.0 0.03 0.20 0.20 94 1009.6
20260502163039 44 65 1.0 4.0 0.02 0.19 0.19 95 1009.5
20260502162531 44 0 0.0 3.0 0.03 0.19 0.19 95 1009.5
20260502162029 43 141 0.0 3.0 0.04 0.19 0.19 94 1009.6
20260502161542 43 76 0.0 3.0 0.05 0.19 0.19 94 1009.7
20260502161029 44 105 0.0 2.0 0.06 0.19 0.19 95 1009.7
20260502160529 43 87 0.0 2.0 0.05 0.18 0.18 95 1009.7
20260502152029 42 0 0.0 3.0 0.01 0.14 0.14 94 1010.0
20260502151556 42 0 0.0 4.0 0.01 0.14 0.14 94 1010.0
20260502151029 42 69 1.0 4.0 0.00 0.13 0.13 94 1010.1
20260502150531 42 65 1.0 4.0 0.00 0.13 0.13 94 1010.0
20260502130530 41 0 0.0 2.0 0.00 0.12 0.12 95 1010.3
20260502123526 41 0 0.0 1.0 0.01 0.12 0.12 95 1010.6
20260502123042 41 0 0.0 2.0 0.01 0.12 0.12 95 1010.7
20260502122527 41 98 0.0 2.0 0.01 0.12 0.12 95 1010.4
20260502122034 40 0 0.0 4.0 0.01 0.12 0.12 95 1010.5
20260502121538 40 0 1.0 4.0 0.01 0.12 0.12 95 1010.4
20260502121030 40 0 0.0 2.0 0.01 0.12 0.12 95 1010.5
20260502120529 40 64 0.0 3.0 0.01 0.12 0.12 95 1010.4
20260502115530 40 70 1.0 3.0 0.01 0.12 0.12 95 1010.3
20260502115028 40 0 0.0 2.0 0.00 0.11 0.11 95 1010.3
20260502114536 40 67 0.0 2.0 0.00 0.11 0.11 95 1010.4
20260502114027 40 0 0.0 2.0 0.00 0.11 0.11 95 1010.4
20260502113530 40 0 0.0 2.0 0.00 0.11 0.11 95 1010.2
20260502113045 40 67 0.0 2.0 0.00 0.11 0.11 95 1010.5
20260502112529 40 0 0.0 2.0 0.00 0.11 0.11 94 1010.4
20260502112031 40 67 0.0 2.0 0.00 0.11 0.11 94 1010.6
20260502111540 40 0 0.0 1.0 0.00 0.11 0.11 95 1010.6
20260502111026 40 0 0.0 2.0 0.00 0.11 0.11 95 1010.4
20260502110526 40 0 0.0 2.0 0.00 0.11 0.11 95 1010.3
20260502110046 40 0 0.0 2.0 0.00 0.11 0.11 95 1010.1
20260502105527 40 0 0.0 0.0 0.00 0.11 0.11 95 1009.9
20260502105028 40 0 0.0 0.0 0.00 0.11 0.11 95 1009.8
20260502104538 40 0 0.0 0.0 0.00 0.11 0.11 95 1010.0
20260502104030 40 0 0.0 0.0 0.00 0.11 0.11 95 1010.0
20260502103532 40 0 0.0 0.0 0.00 0.11 0.11 95 1010.0
20260502103044 40 0 0.0 0.0 0.00 0.11 0.11 95 1010.1
20260502102527 40 0 0.0 0.0 0.00 0.11 0.11 94 1010.1
20260502102027 40 0 0.0 0.0 0.01 0.11 0.11 94 1010.2
20260502101554 40 0 0.0 0.0 0.01 0.11 0.11 94 1010.0
20260502101029 40 0 0.0 0.0 0.02 0.11 0.11 94 1010.0
20260502100527 40 0 0.0 0.0 0.02 0.11 0.11 94 1010.1
20260502091030 40 0 0.0 0.0 0.02 0.09 0.09 94 1010.1
20260502090526 40 0 0.0 0.0 0.03 0.09 0.09 93 1010.2
20260502071534 40 0 0.0 0.0 0.05 0.05 0.05 91 1010.1
20260502071030 40 0 0.0 3.0 0.05 0.05 0.05 91 1010.1
20260502070527 40 0 0.0 3.0 0.05 0.05 0.05 90 1010.1
20260502070100 40 56 1.0 3.0 0.05 0.05 0.05 90 1010.4
20260502065530 40 0 0.0 3.0 0.05 0.05 0.05 89 1010.6
20260502065033 41 0 0.0 3.0 0.05 0.05 0.05 88 1010.7
20260502064546 41 56 0.0 2.0 0.05 0.05 0.05 87 1010.6
20260502064029 41 0 0.0 2.0 0.04 0.04 0.04 85 1010.9
20260502063529 41 0 0.0 3.0 0.02 0.02 0.02 85 1010.9
20260502063039 41 0 0.0 3.0 0.01 0.01 0.01 83 1011.0
20260502062528 42 0 0.0 2.0 0.01 0.01 0.01 82 1011.1
20260502062029 42 351 0.0 3.0 0.00 0.00 0.00 79 1011.1
20260502061538 42 266 1.0 3.0 0.00 0.00 0.00 77 1011.0
20260502061028 42 244 0.0 2.0 0.00 0.00 0.00 78 1011.0
20260502060530 42 0 0.0 5.0 0.00 0.00 0.00 79 1010.9
20260502060044 42 0 0.0 5.0 0.00 0.00 0.00 78 1010.9
20260502055530 42 213 0.0 3.0 0.00 0.00 0.00 77 1010.9
20260502055027 42 311 0.0 3.0 0.00 0.00 0.00 77 1010.8
20260502054554 42 0 1.0 4.0 0.00 0.00 0.00 78 1010.9
20260502054029 42 250 1.0 4.0 0.00 0.00 0.00 78 1010.7
20260502053529 42 344 1.0 3.0 0.00 0.00 0.00 71 1010.5
20260502053042 42 344 1.0 3.0 0.00 0.00 0.00 76 1010.6
20260502052529 41 323 1.0 4.0 0.00 0.00 0.00 75 1010.7
20260502052032 41 292 1.0 6.0 0.00 0.00 0.00 74 1010.8
20260502051537 40 223 1.0 6.0 0.00 0.00 0.00 78 1010.8
20260502051026 40 179 2.0 5.0 0.00 0.00 0.00 79 1010.6
20260502050529 40 309 1.0 4.0 0.00 0.00 0.00 77 1010.5
20260502050036 40 284 1.0 4.0 0.00 0.00 0.00 79 1010.6
20260502045529 40 350 1.0 3.0 0.00 0.00 0.00 77 1010.3
20260502045031 40 277 0.0 3.0 0.00 0.00 0.00 78 1010.5
20260502044541 40 0 0.0 3.0 0.00 0.00 0.00 78 1010.4
20260502044029 39 273 1.0 3.0 0.00 0.00 0.00 79 1010.3
20260502043532 39 295 0.0 3.0 0.00 0.00 0.00 78 1010.3
20260502043050 39 0 0.0 3.0 0.00 0.00 0.00 77 1010.2
20260502042529 39 0 0.0 3.0 0.00 0.00 0.00 77 1010.2
20260502042029 39 347 0.0 2.0 0.00 0.00 0.00 76 1010.2
20260502041553 39 0 0.0 1.0 0.00 0.00 0.00 76 1010.2
20260502041029 39 0 0.0 1.0 0.00 0.00 0.00 78 1010.2
20260502040531 39 347 0.0 2.0 0.00 0.00 0.00 79 1010.1
20260502040053 39 0 0.0 2.0 0.00 0.00 0.00 78 1010.1
20260502035530 39 347 0.0 1.0 0.00 0.00 0.00 77 1010.1
20260502035030 39 0 0.0 0.0 0.00 0.00 0.00 76 1010.0
20260502034546 39 0 0.0 0.0 0.00 0.00 0.00 75 1010.1
20260502034034 39 0 0.0 0.0 0.00 0.00 0.00 76 1010.1
20260502033530 39 0 0.0 0.0 0.00 0.00 0.00 77 1010.1
20260502033040 39 0 0.0 0.0 0.00 0.00 0.00 76 1010.1
20260502032529 40 0 0.0 1.0 0.00 0.00 0.00 75 1010.0
20260502032030 40 0 0.0 1.0 0.00 0.00 0.00 75 1010.1
20260502031539 40 0 0.0 1.0 0.00 0.00 0.00 74 1010.0
20260502031031 40 0 0.0 0.0 0.00 0.00 0.00 74 1009.9
20260502030529 40 0 0.0 0.0 0.00 0.00 0.00 76 1010.0
20260502030049 40 0 0.0 0.0 0.00 0.00 0.00 77 1010.0
20260502025531 40 0 0.0 0.0 0.00 0.00 0.00 77 1010.0
20260502025028 40 0 0.0 0.0 0.00 0.00 0.00 74 1010.0
20260502024551 41 0 0.0 0.0 0.00 0.00 0.00 73 1009.9
20260502024030 41 0 0.0 0.0 0.00 0.00 0.00 73 1010.0
20260502023531 41 0 0.0 0.0 0.00 0.00 0.00 70 1009.9
20260502023054 41 0 0.0 0.0 0.00 0.00 0.00 68 1010.0
20260502022532 41 0 0.0 0.0 0.00 0.00 0.00 67 1010.0
20260502022031 42 0 0.0 0.0 0.00 0.00 0.00 65 1010.0
20260502021541 42 0 0.0 1.0 0.00 0.00 0.00 66 1010.0
20260502021035 42 0 0.0 1.0 0.00 0.00 0.00 67 1010.2
20260502020530 43 0 0.0 2.0 0.00 0.00 0.00 67 1010.1
20260502020040 43 0 0.0 2.0 0.00 0.00 0.00 67 1010.0
20260502015532 43 0 0.0 0.0 0.00 0.01 0.00 68 1010.0
20260502015029 43 0 0.0 0.0 0.00 0.01 0.00 66 1010.0
20260502014538 43 0 0.0 0.0 0.00 0.01 0.00 68 1009.9
20260502014031 44 0 0.0 0.0 0.00 0.01 0.00 64 1010.0
20260502013532 44 0 0.0 0.0 0.00 0.01 0.00 63 1010.0
20260502013053 44 0 0.0 0.0 0.00 0.01 0.00 61 1010.0
20260502012532 44 0 0.0 0.0 0.00 0.01 0.00 61 1009.9
20260502012029 44 0 0.0 1.0 0.00 0.01 0.00 61 1009.8
20260502011559 44 0 0.0 1.0 0.00 0.01 0.00 57 1009.8
20260502011031 44 0 0.0 1.0 0.00 0.01 0.00 59 1009.8
20260502010531 44 0 0.0 0.0 0.00 0.01 0.00 56 1009.8
20260502010039 44 0 0.0 0.0 0.00 0.01 0.00 57 1009.8
20260502005531 45 0 0.0 0.0 0.00 0.06 0.00 56 1009.7
20260502005034 45 0 0.0 1.0 0.00 0.06 0.00 55 1009.7
20260502004543 45 0 0.0 1.0 0.00 0.06 0.00 54 1009.7
20260502004028 46 0 0.0 2.0 0.00 0.06 0.00 54 1009.7
20260502003527 46 0 0.0 2.0 0.00 0.06 0.00 54 1009.6
20260502003041 46 0 0.0 0.0 0.00 0.06 0.00 53 1009.6
20260502002527 47 0 0.0 0.0 0.00 0.06 0.00 52 1009.6
20260502002031 47 0 0.0 0.0 0.00 0.06 0.00 51 1009.4
20260502001544 48 0 0.0 1.0 0.00 0.06 0.00 49 1009.4
20260502001035 48 0 0.0 2.0 0.00 0.06 0.00 47 1009.3
20260502000530 49 0 0.0 2.0 0.00 0.06 0.00 46 1009.3
20260502000054 49 0 0.0 2.0 0.00 0.06 0.00 46 1009.1
20260501235532 50 0 0.0 1.0 0.00 0.06 0.00 45 1009.0
20260501235030 50 0 0.0 2.0 0.00 0.06 0.00 46 1009.0